Location: *
(42.5628°N, 2.3633°E)
Time: 02:16:12
(UTC+00:00)

ATLAS 2AS CENTAUR R/B - Pass Details

Date: 30 March 2020
Orbit: 931 x 1280 km, 63.7° (Epoch: 31 May)

Event Time Altitude Azimuth Distance (km) Brightness Sun altitude
Rises 21:52:40 0° 323° (NW) 4,163 6.8 -35.7°
Reaches altitude 10° 21:55:32 10° 322° (NW) 3,155 5.9 -36.0°
Enters shadow 22:01:39 60° 305° (NW) 1,305 3.2 -36.7°
